Weather History for KDVP - October, 2012

Change the Weather History Date:

Sunday, October 14, 2012

  Actual Average (KOTG) Record (KOTG)
Temperature  
Mean Temperature 48 °F -  
Max Temperature 58 °F 57 °F 87 °F (1975)
Min Temperature 37 °F 37 °F 21 °F (2006)
Degree Days  
Heating Degree Days 17    
Moisture  
Dew Point 34 °F    
Average Humidity 65    
Maximum Humidity 99    
Minimum Humidity 35    
Precipitation  
Precipitation 0.00 in - - ()
Sea Level Pressure  
Sea Level Pressure 29.86 in    
Wind  
Wind Speed 11 mph (NNW)    
Max Wind Speed 25 mph    
Max Gust Speed 32 mph    
Visibility 9 miles    
Events Fog    
Averages and records for this station are not official NWS values.
T = Trace of Precipitation, MM = Missing Value Source: NWS Daily Summary

Daily Weather History Graph

Daily Weather History Graph

Search for Another Location

Airport or City:

Trip Planner

Search our weather history database for the weather conditions in past years. The results will help you decide how hot, cold, wet, or windy it might be!

Date:

Astronomy

Oct. 14, 2012 Rise Set
Actual Time 7:37 AM CDT 6:40 PM CDT
Civil Twilight 7:08 AM CDT 7:09 PM CDT
Nautical Twilight 6:34 AM CDT 7:42 PM CDT
Astronomical Twilight 6:01 AM CDT 8:15 PM CDT
Moon 6:36 AM CDT (10/14) 6:00 PM CDT (10/14)
Length of Visible Light 12h 01m
Length of Day
11h 03m
Waning Crescent, 1% of the Moon is Illuminated
Oct 14
Waning Crescent
Oct 15
New
Oct 21
First Quarter
Oct 29
Full
Nov 6
Last Quarter

Hourly Weather History & Observations

Time (CDT) Temp. Windchill Dew Point Humidity Pressure Visibility Wind Dir Wind Speed Gust Speed Precip Events Conditions
12:14 AM 45.9 °F 43.6 °F 45.1 °F 97% 29.75 in 3.0 mi NNE 4.6 mph - N/A   Overcast
12:34 AM 46.2 °F 45.0 °F 45.7 °F 98% 29.76 in 1.0 mi North 3.5 mph - N/A   Overcast
12:54 AM 45.9 °F 43.6 °F 45.5 °F 99% 29.75 in 0.2 mi North 4.6 mph - N/A Fog Fog
1:14 AM 46.8 °F - 46.6 °F 99% 29.76 in 0.2 mi North 5.8 mph - N/A Fog Fog
1:34 AM 46.4 °F 42.4 °F 46.2 °F 99% 29.76 in 0.2 mi North 8.1 mph - N/A Fog Fog
1:54 AM 46.6 °F - 46.4 °F 99% 29.77 in 0.5 mi North 6.9 mph - N/A Fog Fog
2:14 AM 46.6 °F - 46.4 °F 99% 29.76 in 0.2 mi NNW 12.7 mph - N/A Fog Fog
2:34 AM 45.5 °F 39.2 °F 45.3 °F 99% 29.77 in 4.0 mi NNW 13.8 mph - N/A   Overcast
2:55 AM 44.1 °F 38.1 °F 40.8 °F 88% 29.78 in 7.0 mi North 11.5 mph - N/A   Mostly Cloudy
3:14 AM 43.0 °F 37.2 °F 38.5 °F 84% 29.79 in 10.0 mi NNW 10.4 mph - N/A   Scattered Clouds
3:34 AM 42.6 °F 36.3 °F 37.6 °F 82% 29.78 in 10.0 mi NNW 11.5 mph - N/A   Clear
3:54 AM 41.9 °F 35.9 °F 36.7 °F 82% 29.78 in 10.0 mi NNW 10.4 mph - N/A   Clear
4:14 AM 42.1 °F 34.9 °F 35.2 °F 77% 29.79 in 10.0 mi NNW 13.8 mph - N/A   Clear
4:34 AM 41.9 °F 35.4 °F 34.7 °F 76% 29.79 in 10.0 mi NNW 11.5 mph - N/A   Clear
4:55 AM 41.2 °F 34.1 °F 33.8 °F 75% 29.79 in 10.0 mi NNW 12.7 mph - N/A   Clear
5:15 AM 40.8 °F 34.1 °F 33.3 °F 74% 29.79 in 10.0 mi NNW 11.5 mph - N/A   Clear
5:35 AM 39.9 °F 33.9 °F 33.3 °F 77% 29.80 in 10.0 mi NNW 9.2 mph - N/A   Clear
5:54 AM 39.7 °F 32.3 °F 33.1 °F 77% 29.81 in 10.0 mi NNW 12.7 mph 17.3 mph N/A   Clear
6:14 AM 40.1 °F 33.2 °F 32.9 °F 75% 29.81 in 10.0 mi NNW 11.5 mph 17.3 mph N/A   Clear
6:34 AM 40.5 °F 32.1 °F 32.9 °F 74% 29.81 in 10.0 mi NNW 16.1 mph 21.9 mph N/A   Clear
6:54 AM 40.1 °F 32.7 °F 32.5 °F 74% 29.82 in 10.0 mi NNW 12.7 mph 18.4 mph N/A   Clear
7:14 AM 40.1 °F 32.4 °F 32.2 °F 73% 29.83 in 10.0 mi NNW 13.8 mph 21.9 mph N/A   Clear
7:34 AM 39.7 °F 31.5 °F 32.0 °F 74% 29.83 in 10.0 mi NNW 15.0 mph 21.9 mph N/A   Clear
7:54 AM 39.6 °F 31.3 °F 32.0 °F 74% 29.82 in 10.0 mi NNW 15.0 mph - N/A   Clear
8:14 AM 39.6 °F 31.0 °F 31.8 °F 74% 29.83 in 10.0 mi NNW 16.1 mph 20.7 mph N/A   Clear
8:35 AM 39.2 °F 31.2 °F 31.5 °F 74% 29.84 in 10.0 mi NNW 13.8 mph 19.6 mph N/A   Clear
8:55 AM 41.0 °F 32.8 °F 32.0 °F 70% 29.84 in 10.0 mi NNW 16.1 mph 21.9 mph N/A   Clear
9:14 AM 41.4 °F 33.0 °F 32.0 °F 69% 29.84 in 10.0 mi NNW 17.3 mph 20.7 mph N/A   Clear
9:34 AM 43.0 °F 36.0 °F 32.4 °F 66% 29.84 in 10.0 mi NW 13.8 mph 20.7 mph N/A   Clear
9:55 AM 45.0 °F 37.6 °F 32.9 °F 63% 29.85 in 10.0 mi NW 17.3 mph 24.2 mph N/A   Clear
10:15 AM 45.7 °F 37.6 °F 34.0 °F 64% 29.86 in 10.0 mi North 21.9 mph 31.1 mph N/A   Scattered Clouds
10:34 AM 45.5 °F 38.1 °F 35.8 °F 69% 29.87 in 10.0 mi NNW 18.4 mph 24.2 mph N/A   Overcast
10:55 AM 46.4 °F 39.0 °F 35.6 °F 66% 29.87 in 10.0 mi NNW 19.6 mph 24.2 mph N/A   Overcast
11:15 AM 48.4 °F - 35.1 °F 60% 29.88 in 10.0 mi NNW 16.1 mph - N/A   Overcast
11:34 AM 50.7 °F - 35.4 °F 56% 29.88 in 10.0 mi NNW 19.6 mph 23.0 mph N/A   Mostly Cloudy
11:55 AM 52.7 °F - 33.3 °F 48% 29.88 in 10.0 mi NNW 23.0 mph 32.2 mph N/A   Scattered Clouds
12:14 PM 53.6 °F - 33.1 °F 46% 29.88 in 10.0 mi NNW 25.3 mph 28.8 mph N/A   Clear
12:34 PM 53.8 °F - 32.4 °F 44% 29.88 in 10.0 mi North 24.2 mph 31.1 mph N/A   Clear
12:55 PM 55.0 °F - 32.0 °F 42% 29.88 in 10.0 mi NNW 23.0 mph 28.8 mph N/A   Clear
1:14 PM 55.2 °F - 32.0 °F 41% 29.88 in 10.0 mi North 23.0 mph 31.1 mph N/A   Clear
1:34 PM 55.9 °F - 31.3 °F 39% 29.88 in 10.0 mi NNW 24.2 mph 27.6 mph N/A   Clear
1:54 PM 56.7 °F - 30.9 °F 38% 29.88 in 10.0 mi North 19.6 mph 29.9 mph N/A   Clear
2:14 PM 56.5 °F - 30.7 °F 38% 29.88 in 10.0 mi North 18.4 mph 24.2 mph N/A   Clear
3:14 PM 57.6 °F - 30.0 °F 35% 29.89 in 10.0 mi NW 17.3 mph 23.0 mph N/A   Clear
3:34 PM 57.9 °F - 30.0 °F 35% 29.89 in 10.0 mi NW 18.4 mph 23.0 mph N/A   Clear
3:54 PM 57.7 °F - 30.7 °F 36% 29.89 in 10.0 mi NW 15.0 mph 24.2 mph N/A   Clear
4:14 PM 57.4 °F - 30.7 °F 36% 29.89 in 10.0 mi NNW 18.4 mph 23.0 mph N/A   Clear
4:34 PM 57.4 °F - 31.1 °F 37% 29.90 in 10.0 mi NW 20.7 mph 24.2 mph N/A   Clear
4:55 PM 57.4 °F - 31.8 °F 38% 29.90 in 10.0 mi NW 18.4 mph 25.3 mph N/A   Clear
5:14 PM 56.8 °F - 32.0 °F 39% 29.90 in 10.0 mi NW 18.4 mph - N/A   Clear
5:34 PM 56.5 °F - 32.0 °F 39% 29.91 in 10.0 mi NW 15.0 mph - N/A   Clear
5:54 PM 55.9 °F - 32.0 °F 40% 29.91 in 10.0 mi NNW 13.8 mph - N/A   Clear
6:14 PM 54.9 °F - 32.0 °F 42% 29.92 in 10.0 mi NNW 10.4 mph - N/A   Clear
6:34 PM 52.5 °F - 32.2 °F 46% 29.91 in 10.0 mi NNW 9.2 mph - N/A   Clear
6:54 PM 51.1 °F - 32.2 °F 48% 29.92 in 10.0 mi NNW 8.1 mph - N/A   Clear
7:14 PM 50.2 °F - 32.2 °F 50% 29.92 in 10.0 mi NW 5.8 mph - N/A   Clear
7:34 PM 46.0 °F 43.1 °F 31.6 °F 57% 29.93 in 10.0 mi WNW 5.8 mph - N/A   Clear
7:54 PM 43.9 °F 40.5 °F 30.4 °F 59% 29.95 in 10.0 mi WNW 5.8 mph - N/A   Clear
8:14 PM 44.2 °F 41.8 °F 30.7 °F 59% 29.95 in 10.0 mi West 4.6 mph - N/A   Clear
8:34 PM 43.9 °F 41.3 °F 30.7 °F 60% 29.95 in 10.0 mi West 4.6 mph - N/A   Clear
8:54 PM 43.7 °F 40.3 °F 30.9 °F 61% 29.95 in 10.0 mi West 5.8 mph - N/A   Clear
9:15 PM 41.5 °F 37.8 °F 31.1 °F 66% 29.95 in 10.0 mi West 5.8 mph - N/A   Clear
9:34 PM 41.2 °F 36.6 °F 30.9 °F 67% 29.95 in 10.0 mi WNW 6.9 mph - N/A   Clear
9:55 PM 39.2 °F 33.6 °F 30.2 °F 70% 29.95 in 10.0 mi WNW 8.1 mph - N/A   Clear
10:14 PM 39.2 °F 33.6 °F 30.4 °F 71% 29.95 in 10.0 mi WNW 8.1 mph - N/A   Clear
10:34 PM 39.2 °F 35.0 °F 30.4 °F 71% 29.96 in 10.0 mi WNW 5.8 mph - N/A   Clear
10:54 PM 39.7 °F 35.6 °F 30.9 °F 71% 29.96 in 10.0 mi West 5.8 mph - N/A   Clear
11:14 PM 40.6 °F 36.7 °F 31.1 °F 69% 29.96 in 10.0 mi West 5.8 mph - N/A   Clear
11:34 PM 39.7 °F 35.6 °F 31.1 °F 71% 29.96 in 10.0 mi WNW 5.8 mph - N/A   Clear
11:54 PM 37.0 °F 31.6 °F 30.2 °F 76% 29.96 in 10.0 mi West 6.9 mph - N/A   Clear